Location: Killam
(52.7910°N, 111.8608°W)
Time: 10:43:39
(UTC+00:00)

SR - Pass Details

Date: 21 February 2026
Orbit: 573 x 848 km, 66.7° (Epoch: 7 March)

Event Time Altitude Azimuth Distance (km) Brightness Sun altitude
Exits shadow 13:30:55 13° 282° (WNW) 1,770 ? -9.8°
Maximum altitude 13:33:57 25° 332° (NNW) 1,285 ? -9.4°
Drops below altitude 10° 13:37:48 10° 28° (NNE) 2,082 ? -8.8°
Sets 13:40:35 0° 42° (NE) 3,050 ? -8.4°
